Regional Weather Roundup
Issued by NWS San Diego, CA

Home | Current Version | Previous Version | Text Only | Print | Product List | Glossary On
Versions: 1 2 3 4 5 6 7 8 9 10 11 12 13 14 15 16 17 18 19 20 21 22 23 24 25 26 27 28 29 30 31 32 33 34 35 36 37 38 39 40 41 42 43 44 45 46 47 48 49 50
000
ASUS46 KSGX 212011
RWRSGX

SAN DIEGO HOURLY WEATHER ROUNDUP
NATIONAL WEATHER SERVICE SAN DIEGO CA
1200 PM PST TUE NOV 21 2017

NOTE: "FAIR" INDICATES FEW OR NO CLOUDS BELOW 12,000 FEET WITH NO
SIGNIFICANT WEATHER AND/OR OBSTRUCTIONS TO VISIBILITY.

CAZ042-043-060-061-PZZ750-775-212100-

GREATER SAN DIEGO AREA

CITY           SKY/WX    TMP DP  RH WIND       PRES   REMARKS
SAN DIEGO AP   MOSUNNY   78  37  22 NW6       30.05F
NATIONAL CITY    N/A     74  49  41 CALM      30.05F
CHULA VISTA      N/A     80  46  29 W3        29.96F
IMPERIAL BEACH MOSUNNY   73  45  36 SW8       30.04F
BROWN FIELD    SUNNY     82  28  14 VRB5      30.04F
MIRAMAR MCAS   MOSUNNY   90  33  13 NW6       30.04F
MONTGOMERY FLD SUNNY     89  30  12 VRB3      30.04F
GILLESPIE FLD  SUNNY    N/A N/A N/A CALM      30.05F

$$

NORTH SAN DIEGO COUNTY

CITY           SKY/WX    TMP DP  RH WIND       PRES   REMARKS
CAMP PENDLETON MOSUNNY   84  35  17 S12       30.02F
OCEANSIDE AP   SUNNY     79  38  22 W12       30.03F
OCEANSIDE HBR    N/A     66  59  78 E10       30.06F
VISTA            N/A     84  42  22 W3        30.01F
CARLSBAD       SUNNY     76  32  20 VRB5      30.04F
DEL MAR          N/A     74  49  41 CALM      30.06F
LA JOLLA SCRIP   N/A     68  51  54 N3        30.04F
FALLBROOK        N/A     89  25  10 NE2       30.04F
ESCONDIDO        N/A     86  39  18 W6        30.04F
SAN MARCOS       N/A     85  40  20 W5        30.06F

$$

EAST SAN DIEGO COUNTY

CITY           SKY/WX    TMP DP  RH WIND       PRES   REMARKS
RAMONA         SUNNY     73  32  22 NW14      30.07
SANTEE LAKES     N/A     87  36  16 CALM      30.02F
LA MESA          N/A     84  31  15 CALM      29.98F
JAMUL            N/A     86  38  18 CALM      30.05F
DESCANSO N       N/A     81  38  21 NE13      30.01F
MT. LAGUNA OBS   N/A     63  28  26 NE14      30.06F
CAMPO            N/A     83  26  12 E20G30    30.10F

$$

ORANGE COUNTY AND THE LOS ANGELES BASIN

CITY           SKY/WX    TMP DP  RH WIND       PRES   REMARKS
JOHN WAYNE AP  PTSUNNY   80  46  30 SW7       30.04F
LAGUNA BEACH     N/A     69  54  57 CALM      30.00F
LAKE FOREST FR   N/A     85  32  15 W3        29.93F
HUNTINGTON BCH   N/A     74  56  53 SW3       30.05F
LOS ALAMITOS   PTSUNNY   84  40  20 CALM      30.03F
FULLERTON      SUNNY     85  39  19 CALM      30.03F
LONG BEACH     SUNNY     86  35  16 NW5       30.04F
L.A. AP        PTSUNNY   78  39  24 W9        30.05F
L.A. DOWNTOWN  SUNNY     87  29  12 CALM      30.03F

$$

THE INLAND EMPIRE

CITY           SKY/WX    TMP DP  RH WIND       PRES   REMARKS
CORONA         SUNNY     89  37  16 CALM      30.05F
CHINO          MOSUNNY   87  38  17 CALM      30.07F
ONTARIO        CLOUDY    85  26  11 W5        30.07F
SAN BERNARDINO PTSUNNY   90  28  11 CALM      30.08F
RIVERSIDE AP   MOSUNNY   90  32  12 NE8       30.06F
MORENO VALLEY    N/A     87  34  14 CALM      28.21F
MARCH ARB      SUNNY     88  22   9 E8        30.09F
HORSETHIEF CYN   N/A     86  23  10 NE3       30.08F
PERRIS           N/A     85  32  15 CALM        N/A
HEMET EAST       N/A     81  27  14 CALM      30.12F
FRENCH VALLEY  FAIR      84  25  11 N7        30.08F
TEMECULA         N/A     82  37  19 CALM      30.11F

$$

SAN BERNARDINO AND RIVERSIDE COUNTY MOUNTAINS

CITY           SKY/WX    TMP DP  RH WIND       PRES   REMARKS
BIG BEAR AP    SUNNY     61  32  33 NE10      30.41F
ANGELUS OAKS     N/A     71  36  28 CALM      30.05F

$$

SOUTHERN DESERT INCLUDING THE COACHELLA VALLEY

CITY           SKY/WX    TMP DP  RH WIND       PRES   REMARKS
PALM SPRINGS   SUNNY     81  21  11 SE3       30.12F
THOUSAND PALMS   N/A     79  22  12 N1        30.08F
PALM DESERT      N/A     83  25  12 CALM        N/A
THERMAL        SUNNY     80  22  11 W3        30.08F
BLYTHE         SUNNY     75   7   7 VRB3      30.11F
IMPERIAL AP    SUNNY     79  23  12 NW5       30.09F
EL CENTRO NAS  PTSUNNY   81  20  10 N5        30.10F
YUMA AZ        MOSUNNY   79   9   7 N13       30.09F
MEXICALI       MOSUNNY   75  21  13 NW9       30.13S

$$

UPPER DESERT

CITY           SKY/WX    TMP DP  RH WIND       PRES   REMARKS
VICTORVILLE AP MOSUNNY   70  10  10 CALM      30.26F
HESPERIA         N/A     72  19  13 N1        30.35F
PALMDALE       SUNNY     69  13  11 NW3       30.26F
LANCASTER      SUNNY     68  10  10 CALM      30.26F
EDWARDS AFB    PTSUNNY   66   6   9 NE3       30.23F
DAGGETT        MOSUNNY   70   9   9 W6        30.23F
29 PALMS N     SUNNY     78   5   6 N5        30.26F
NEEDLES        SUNNY     78  11   8 N9        30.14F

$$

REGIONAL REPORTS

CITY           SKY/WX    TMP DP  RH WIND       PRES   REMARKS
SANTA BARBARA  MOSUNNY   77  47  34 W8        30.06F
SANDBERG       SUNNY     72  23  16 NE10G20   30.32F
LAS VEGAS NV   PTSUNNY   67  14  13 CALM      30.23F
PHOENIX AZ     PTSUNNY   74  27  17 VRB3      30.06F
TIJUANA        MOSUNNY   84  27  12 NW9       30.06F
ENSENADA NW      N/A     72  32  22 CALM      29.98F

$$

OFFSHORE ISLANDS

CITY           SKY/WX    TMP DP  RH WIND       PRES   REMARKS
CATALINA ARPT  SUNNY     80  27  14 N5        30.12F
SAN CLEMENTE I PTSUNNY   74  42  31 SW6       30.08F
SAN NICOLAS IS PTSUNNY   78  47  33 NW6       30.07F

$$

MARINE AND OFFSHORE BUOY REPORTS

STATION/POSITION SKY/WX   TEMP    WIND        PRES    VSBY  SWELL
                          AIR SEA DIR/SP/G                  HT/PER/DIR
                          (F)     (DEG/KT/KT) (MB)    (MI)  (FT/S/D)
TANNER BANKS               63 63  280/  2/  6 1017.6F         3/310/12
S CLEMENTE BASIN           67 66  310/  8/ 10 1017.6F         2/250/12
SAN NICOLAS IS.               63                N/A           3/300/13
SO. S. ROSA ISLA           62 62  320/  4/  6 1017.8F         3/290/11
W. S. BARBARA CH           62 59  320/  2/  4 1017.7
M. S. BARBARA CH           62 60  330/  4/  4 1018.6
S. MONICA BASIN               65  270/  6/  6 1017.6
S PEDRO CHANNEL               62                N/A           2/250/11
CMP PENDLETON NS              61                N/A           2/220/15
OCEANSIDE OFFSHR              62                N/A           2/220/15
TORREY PINES OTR              64                N/A           2/240/13
SAN DIEGO BAY                 67              1017.5F
POINT LOMA SOUTH              66                N/A           2/240/13

$$





USA.gov is the U.S. government's official web portal to all federal, state and local government web resources and services.